Flag for U.S.A. Weather past 2 weeks in Ann Arbor, Michigan, U.S.A.

Now
66 °F

Sunny.


Feels Like: 66 °F
Forecast: 54 / 81 °F
Wind: 6 mph from Northwest

Location: Ann Arbor Municipal Airport

Current Time: Jul 4, 2015 at 9:41:09 AM

Latest Report: Jul 4, 2015 at 8:53 AM


Visibility: 10 mi

Pressure: 29.97 "Hg

Humidity: 73%

Dew point: 57 °F

Location of Ann ArborLocation

Historic Weather in Ann Arbor — Graph

°F

Ann Arbor temperature yesterday

Maximum temperature yesterday: 75 °F (at 5:53 PM)
Minimum temperature yesterday: 48 °F (at 1:53 AM)
Average temperature yesterday: 62 °F

Past Weeks' High & Low Weather Summary

 TemperatureHumidityPressure
High83 °F (Jun 22, 7:53 PM)100% (Jun 24, 4:53 AM)30.16 "Hg (Jun 24, 4:53 AM)
Low47 °F (Jul 4, 5:53 AM)32% (Jun 24, 2:53 PM)29.71 "Hg (Jun 23, 2:53 AM)
Average66 °F77%29.92 "Hg
* Reported Jun 19 7:53 AM — Jul 4 7:53 AM, Ann Arbor, Weather by CustomWeather, © 2015

Note: Actual official high and low records may vary slightly from our data, if they occured in-between our weather recording intervals... More about our weather records

Advertising

Ann Arbor weather history for previous 24 hours

 ConditionsComfort  
Time TempWeatherWind HumidityBarometerVisibility
7:53 AM
Sat, Jul 4
58 °FSunny.No wind97%29.96 "Hg8 mi
6:53 AM49 °FFog.No wind100%29.95 "Hg0 mi
5:53 AM47 °FFog.No wind97%29.94 "Hg1 mi
4:53 AM48 °FFog.No wind96%29.93 "Hg0 mi
3:53 AM49 °FFog.No wind97%29.93 "Hg0 mi
2:53 AM48 °FFog.No wind96%29.94 "Hg0 mi
2:00 AM50 °FFog.No wind100%29.94 "Hg1 mi
12:55 AM52 °FFog.3 mph100%29.94 "Hg3 mi
11:53 PM
Fri, Jul 3
53 °FClear.No wind96%29.93 "Hg9 mi
10:53 PM55 °FClear.No wind93%29.93 "Hg10 mi
9:53 PM58 °FFog.No wind93%29.92 "Hg6 mi
8:53 PM68 °FSunny.No wind68%29.90 "Hg10 mi
7:53 PM70 °FSunny.6 mph66%29.91 "Hg10 mi
7:00 PM73 °FPassing clouds.5 mph51%29.91 "Hg10 mi
5:53 PM75 °FSunny.No wind52%29.92 "Hg10 mi
4:53 PM74 °FPassing clouds.No wind52%29.93 "Hg10 mi
3:53 PM72 °FSunny.No wind57%29.95 "Hg10 mi
2:53 PM73 °FSunny.3 mph51%29.97 "Hg10 mi
1:53 PM72 °FSunny.7 mph52%29.98 "Hg10 mi
12:53 PM74 °FSunny.No wind50%29.97 "Hg10 mi
11:53 AM71 °FSunny.6 mph51%29.98 "Hg10 mi
10:53 AM68 °FSunny.5 mph55%29.99 "Hg10 mi
9:53 AM64 °FSunny.7 mph61%29.99 "Hg10 mi
Weather by CustomWeather, © 2015

See weather overviewHow to use our weather pages